Location: Newark
(34.9500°N, 139.9667°E)
Time: 13:26:27
(UTC+00:00)

Vanguard 1 Rocket - Pass Details

Date: 09 December 2019
Orbit: 650 x 4226 km, 34.3° (Epoch: 23 January)

Event Time Altitude Azimuth Distance (km) Brightness Sun altitude
Rises 15:50:49 0° 279° (W) 5,414 - -69.1°
Reaches altitude 10° 15:55:09 10° 277° (W) 3,857 - -68.3°
Maximum altitude 16:03:57 70° 196° (SSW) 1,056 - -66.7°
Drops below altitude 10° 16:09:01 10° 113° (ESE) 2,284 - -65.7°
Sets 16:11:00 0° 110° (ESE) 3,074 - -65.4°
